Waarnemingen

Advertentie
Mijn weer
Granada/Aeropuerto, Spanje (8419): temperatuur & dauwpunt: 20.01.2020 07:00:00 - 26.01.2020 07:00:00 (CET)Granada/Aeropuerto, Spanje (8419): windsnelheid: 20.01.2020 07:00:00 - 26.01.2020 07:00:00 (CET)Granada/Aeropuerto, Spanje (8419): windrichting: 20.01.2020 07:00:00 - 26.01.2020 07:00:00 (CET)Granada/Aeropuerto, Spanje (8419): luchtdruk: 20.01.2020 07:00:00 - 26.01.2020 07:00:00 (CET)Granada/Aeropuerto, Spanje (8419): zicht: 20.01.2020 07:00:00 - 26.01.2020 07:00:00 (CET)
Datum & Tijd tt [°C] td [°C] ff [km/u] ff [kn] dd ppp [hPa] vv [km]
26.01.2020 07:00:00 7,4 7,1 0 0 N 1023,1 8
26.01.2020 06:00:00 7,3 7,0 0 0 N 1022,6 30
26.01.2020 05:00:00 7,3 7,0 2 1 O 1022,3 25
26.01.2020 04:00:00 7,2 6,9 0 0 N 1022,1 4,1
26.01.2020 03:00:00 7,2 6,8 4 2 WZW 1021,7 8
26.01.2020 02:00:00 7,2 6,6 0 0 N 1021,4 30
26.01.2020 01:00:00 7,0 6,3 0 0 N 1021,3 30
26.01.2020 00:00:00 7,5 6,8 4 2 Z 1020,8 30
25.01.2020 23:00:00 7,8 6,9 4 2 OZO 1020,4 30
25.01.2020 22:00:00 8,3 6,3 4 2 Z 1019,9 30
25.01.2020 21:00:00 8,9 5,6 9 5 ZZW 1019,4 30
25.01.2020 20:00:00 8,5 6,8 5 3 ZZW 1018,8 30
25.01.2020 19:00:00 8,9 6,9 8 4 Z 1018,0 30
25.01.2020 18:00:00 9,5 6,8 9 5 OZO 1017,3 30
25.01.2020 17:00:00 9,3 7,6 4 2 ZO 1017,3 30
25.01.2020 16:00:00 9,4 7,3 0 0 N 1017,2 30
25.01.2020 15:00:00 10,9 6,0 16 9 ZZO 1016,3 30
25.01.2020 14:00:00 11,0 6,5 22 12 ZO 1017,1 30
25.01.2020 13:00:00 8,4 5,7 8 4 NO 1019,1 30
25.01.2020 12:00:00 6,9 5,5 15 8 O 1020,1 30
25.01.2020 11:00:00 6,5 5,8 22 12 O 1020,0 30
25.01.2020 10:00:00 6,7 6,1 15 8 O 1019,8 9
25.01.2020 09:00:00 6,9 6,0 11 6 W 1019,6 7
25.01.2020 08:00:00 7,5 6,9 8 4 ZZW 1018,9 12
25.01.2020 07:00:00 9,1 6,2 11 6 Z 1017,5 18
25.01.2020 06:00:00 9,0 6,4 16 9 ZO 1017,1 30
25.01.2020 05:00:00 7,7 6,6 4 2 NO 1017,8 30
25.01.2020 04:00:00 7,4 6,7 0 0 N 1018,4 30
25.01.2020 03:00:00 7,7 6,8 2 1 ZW 1018,8 30
25.01.2020 02:00:00 8,3 6,4 5 3 WNW 1019,0 30
25.01.2020 01:00:00 9,1 5,8 4 2 W 1019,0 30
25.01.2020 00:00:00 10,0 4,8 8 4 Z 1019,2 30
24.01.2020 23:00:00 10,3 4,6 21 11 ZZO 1019,0 30
24.01.2020 22:00:00 10,8 4,3 18 10 ZZO 1018,9 30
24.01.2020 21:00:00 9,2 5,9 0 0 N 1019,1 24
24.01.2020 20:00:00 10,1 5,5 2 1 N 1018,4 26
24.01.2020 19:00:00 10,6 4,7 0 0 N 1017,8 30
24.01.2020 18:00:00 11,8 4,6 16 9 ZZO 1017,9 30
24.01.2020 17:00:00 12,7 5,3 11 6 ZZO 1017,6 30
24.01.2020 16:00:00 13,2 4,6 8 4 Z 1017,8 30
24.01.2020 15:00:00 13,8 5,4 18 10 Z 1018,0 16
24.01.2020 14:00:00 13,2 6,0 4 2 WZW 1018,8 30
24.01.2020 13:00:00 13,2 5,8 4 2 ONO 1019,6 30
24.01.2020 12:00:00 11,5 6,2 8 4 NO 1020,7 30
24.01.2020 11:00:00 9,6 6,3 4 2 NNO 1021,7 18
24.01.2020 10:00:00 7,7 6,5 5 3 O 1021,7 10
24.01.2020 09:00:00 6,4 5,8 4 2 ZO 1021,7 9
24.01.2020 08:00:00 6,2 5,5 0 0 N 1021,4 8
24.01.2020 07:00:00 6,6 5,7 0 0 N 1020,9 10
24.01.2020 06:00:00 6,8 5,4 0 0 N 1020,9 13
24.01.2020 05:00:00 6,8 5,4 5 3 ZO 1020,7 19
24.01.2020 04:00:00 6,8 5,4 4 2 ZO 1020,9 24
24.01.2020 03:00:00 7,3 5,3 4 2 ZO 1020,6 17
24.01.2020 02:00:00 8,3 4,5 2 1 NW 1020,1 30
24.01.2020 01:00:00 7,4 4,6 4 2 ZW 1019,9 27
24.01.2020 00:00:00 7,7 4,1 2 1 W 1019,5 30
23.01.2020 23:00:00 9,3 3,5 9 5 O 1019,0 30
23.01.2020 22:00:00 10,2 3,2 8 4 ZO 1018,8 30
23.01.2020 21:00:00 9,9 3,1 8 4 Z 1018,5 30
23.01.2020 20:00:00 8,0 3,5 8 4 ZZO 1018,6 30
23.01.2020 19:00:00 9,2 3,2 0 0 N 1017,8 30
23.01.2020 18:00:00 11,9 2,9 9 5 ZZW 1016,8 30
23.01.2020 17:00:00 13,4 2,9 22 12 Z 1016,2 30
23.01.2020 16:00:00 13,7 4,8 13 7 Z 1016,0 30
23.01.2020 15:00:00 13,7 4,1 21 11 ZZO 1015,9 30
23.01.2020 14:00:00 14,5 4,0 21 11 ZZO 1016,1 25
23.01.2020 13:00:00 14,1 4,6 29 16 ZZO 1016,9 25
23.01.2020 12:00:00 12,6 4,9 21 11 ZO 1017,8 30
23.01.2020 11:00:00 7,8 4,5 4 2 N 1019,2 16
23.01.2020 10:00:00 6,2 4,2 4 2 OZO 1019,3 15
23.01.2020 09:00:00 5,1 3,8 2 1 ZZO 1019,1 24
23.01.2020 08:00:00 5,0 3,2 4 2 ZO 1019,0 25
23.01.2020 07:00:00 4,4 3,4 4 2 ZO 1018,8 25
23.01.2020 06:00:00 4,3 3,4 2 1 O 1018,6 19
23.01.2020 05:00:00 4,1 3,4 4 2 ONO 1018,7 15
23.01.2020 04:00:00 4,1 3,5 4 2 N 1018,9 9
23.01.2020 03:00:00 4,1 3,8 0 0 N 1019,2 9
23.01.2020 02:00:00 3,1 2,7 0 0 N 1019,4 6
23.01.2020 01:00:00 2,9 2,2 0 0 N 1019,7 6
23.01.2020 00:00:00 4,6 3,4 8 4 O 1018,8 28
22.01.2020 23:00:00 5,2 3,2 4 2 ZZO 1018,7 30
22.01.2020 22:00:00 6,9 4,4 8 4 ZO 1018,4 15
22.01.2020 21:00:00 6,8 4,8 11 6 O 1018,0 30
22.01.2020 20:00:00 7,3 4,6 4 2 OZO 1017,4 30
22.01.2020 19:00:00 6,9 4,6 2 1 ZO 1017,1 30
22.01.2020 18:00:00 7,4 6,2 5 3 Z 1016,8 13
22.01.2020 17:00:00 7,9 6,4 4 2 Z 1016,1 11
22.01.2020 16:00:00 9,0 6,3 8 4 ZW 1015,5 7
22.01.2020 15:00:00 10,0 5,2 2 1 Z 1015,2 22
22.01.2020 14:00:00 9,8 4,7 0 0 N 1015,6 19
22.01.2020 13:00:00 9,3 4,5 0 0 N 1016,5 20
22.01.2020 12:00:00 7,9 4,3 0 0 N 1017,4 30
22.01.2020 11:00:00 6,4 3,9 4 2 Z 1017,5 30
22.01.2020 10:00:00 5,3 3,3 4 2 O 1017,5 18
22.01.2020 09:00:00 3,9 3,2 4 2 ZO 1017,5 30
22.01.2020 08:00:00 3,6 2,6 5 3 ZO 1017,2 18
22.01.2020 07:00:00 4,1 3,1 9 5 O 1016,2 18
22.01.2020 06:00:00 2,9 2,3 4 2 O 1016,4 29
22.01.2020 05:00:00 2,7 2,0 4 2 OZO 1016,7 16
22.01.2020 04:00:00 4,1 3,2 2 1 ZO 1016,5 19
22.01.2020 03:00:00 5,2 3,8 0 0 N 1016,2 30
22.01.2020 02:00:00 5,7 4,0 16 9 O 1016,3 30
22.01.2020 01:00:00 5,4 4,7 9 5 ONO 1016,2 30
22.01.2020 00:00:00 5,4 4,7 8 4 O 1016,2 8
21.01.2020 23:00:00 5,8 5,0 4 2 O 1015,7 9
21.01.2020 22:00:00 5,8 4,6 8 4 ONO 1015,4 12
21.01.2020 21:00:00 6,3 4,5 8 4 O 1014,7 14
21.01.2020 20:00:00 7,2 3,9 5 3 O 1014,1 16
21.01.2020 19:00:00 7,6 4,4 5 3 O 1013,2 22
21.01.2020 18:00:00 8,5 3,8 5 3 ZO 1012,0 21
21.01.2020 17:00:00 9,1 2,9 4 2 O 1011,6 30
21.01.2020 16:00:00 9,5 2,8 4 2 ZO 1011,1 30
21.01.2020 15:00:00 9,1 2,2 0 0 N 1011,4 30
21.01.2020 14:00:00 9,0 2,4 2 1 ZZW 1011,9 30
21.01.2020 13:00:00 8,6 2,7 4 2 ZO 1012,8 30
21.01.2020 12:00:00 7,7 2,9 9 5 N 1012,9 30
21.01.2020 11:00:00 6,5 2,7 2 1 WNW 1013,8 30
21.01.2020 10:00:00 5,2 2,0 5 3 NNW 1013,9 30
21.01.2020 09:00:00 4,2 1,7 2 1 W 1013,8 30
21.01.2020 08:00:00 3,6 2,0 2 1 W 1014,4 30
21.01.2020 07:00:00 2,5 1,3 0 0 N 1014,6 30
21.01.2020 06:00:00 2,3 1,1 5 3 W 1014,4 30
21.01.2020 05:00:00 2,4 0,9 5 3 W 1015,3 30
21.01.2020 04:00:00 3,4 0,6 2 1 ZO 1015,4 30
21.01.2020 03:00:00 4,8 1,3 11 6 ONO 1015,3 30
21.01.2020 02:00:00 4,0 1,2 4 2 NNO 1015,8 30
21.01.2020 01:00:00 2,7 0,8 0 0 N 1016,9 30
21.01.2020 00:00:00 4,5 1,0 2 1 ONO 1016,4 30
20.01.2020 23:00:00 4,5 0,8 5 3 ONO 1016,3 30
20.01.2020 22:00:00 4,5 1,1 4 2 ZO 1016,1 30
20.01.2020 21:00:00 4,9 1,2 4 2 ZZO 1015,8 30
20.01.2020 20:00:00 5,2 1,1 16 9 NO 1015,3 30
20.01.2020 19:00:00 5,5 1,2 18 10 NO 1014,9 30
20.01.2020 18:00:00 6,4 1,3 11 6 NO 1014,1 30
20.01.2020 17:00:00 8,4 0,8 13 7 NO 1013,2 30
20.01.2020 16:00:00 7,3 1,2 24 13 NNO 1013,0 30
20.01.2020 15:00:00 8,0 1,0 18 10 NO 1012,7 30
20.01.2020 14:00:00 6,6 0,8 11 6 NO 1014,1 30
20.01.2020 13:00:00 5,7 0,4 15 8 NO 1014,9 30
20.01.2020 12:00:00 4,5 -0,1 21 11 NO 1015,5 30
20.01.2020 11:00:00 3,8 -0,1 29 16 NNO 1016,2 30
20.01.2020 10:00:00 2,9 -0,2 26 14 N 1016,7 30
20.01.2020 09:00:00 2,4 -0,4 24 13 NNO 1016,9 30
20.01.2020 08:00:00 2,3 -0,3 22 12 NNO 1017,3 30
20.01.2020 07:00:00 2,1 -0,2 22 12 NNO 1017,4 30

tt = temperatuur
td = dauwpunt
ff = windsnelheid
dd = windrichting
ppp = luchtdruk
vv = zicht

Weerstations in de omgeving